Location: St. Louis
(38.6270°N, 90.1994°W)
Time: 12:04:58
(UTC-06:00)

Altair - Pass Details

Date: 01 December 2021
Orbit: 1501 x 1683 km, 47.2° (Epoch: 25 January)

Event Time Altitude Azimuth Distance (km) Brightness Sun altitude
Rises 20:36:00 0° 295° (WNW) 4,674 10.7 -45.5°
Reaches altitude 10° 20:39:07 10° 299° (WNW) 3,676 10.0 -46.1°
Enters shadow 20:44:13 36° 314° (NW) 2,213 8.4 -47.1°
Maximum altitude 20:48:15 62° 19° (NNE) 1,659 - -47.9°
Drops below altitude 10° 20:57:20 10° 100° (E) 3,661 - -49.6°
Sets 21:00:26 0° 104° (ESE) 4,654 - -50.2°
